Find Local Weather

World > North America > United States > Pennsylvania

Lancaster, Pennsylvania Regional Weather

Lat: 40.04N, Lon: 76.3W
Wx Zone: PAZ066
Warning FLW WEATHER ALERT - HARD FROST ADVISORY (More Info. Click Here) Warning
Feedback
Expires:201810211900;;529039
ASUS41 KPHI 211813
RWRPHI

REGIONAL WEATHER ROUNDUP
NATIONAL WEATHER SERVICE MOUNT HOLLY NJ
200 PM EDT SUN OCT 21 2018

NOTE:  "FAIR" INDICATES FEW OR NO CLOUDS BELOW 12,000 FEET WITH NO
SIGNIFICANT WEATHER AND/OR OBSTRUCTIONS TO VISIBILITY.

 * = STATION DOES NOT REPORT PRECIPITATION (E.G. RAIN, SNOW, ETC.) 
        OR FOG.


PAZ043-044-047-054-055-060>062-066>071-211900-
EASTERN PENNSYLVANIA
  
CITY           SKY/WX    TMP DP  RH WIND       PRES   REMARKS
PHILADELPHIA   FAIR      48  26  42 NW15G25   30.04F                  
6HR MIN TEMP:  45; 6HR MAX TEMP:  49; 6HR PCP: TRACE;                

NORTH PHILA    CLOUDY    49  30  48 NW16G23   30.04S                  
BLUE BELL*     PTSUNNY   45  28  53 NW8       30.04S                  
DOYLESTOWN     PTSUNNY   45  27  49 NW10G21   30.02R                  
QUAKERTOWN*    MOSUNNY   46  25  42 NW12G23   30.03S                  
PERKASIE*      MOCLDY    46  27  46 NW14G26   30.03R                  
POTTSTOWN      FAIR      47  25  42 NW15G23   30.06R                  
LANCASTER      FAIR      49  29  46 NW22G30   30.07R                  
COATESVILLE    FAIR      46  27  46 NW20G29   30.06S                  
READING        FAIR      49  27  42 NW23G36   30.04F                  
6HR MIN TEMP:  43; 6HR MAX TEMP:  49;                                

ALLENTOWN      PTSUNNY   48  25  40 NW18G28   30.04S                  
6HR MIN TEMP:  43; 6HR MAX TEMP:  49;                                

MOUNT POCONO   CLOUDY    34  23  64 NW26G35   29.98R WCI  21          
6HR MIN TEMP:  33; 6HR MAX TEMP:  36; 6HR PCP:  0.02;                

HAZLETON       FAIR      43  21  42 NW14G26   30.05S                  
LEHIGHTON      FAIR      45  23  42 NW8G20    30.05S                  
WILKES BARRE   PTSUNNY   38  21  50 NW14G23   30.07R WCI  30          

$$

SKY/WX - Weather  TMP - Temperature  DP - Dew Point  RH - Relative Humidity
WIND - Wind Direction/Speed PRES - Barometric Pressure